<?xml version="1.0"?>
<gpx xmlns="http://www.topografix.com/GPX/1/1" xmlns:xsi="http://www.w3.org/2001/XMLSchema-instance" version="1.1" creator="GPX RubyGem 1.0.0 -- http://dougfales.github.io/gpx/" xsi:schemaLocation="http://www.topografix.com/GPX/1/1 http://www.topografix.com/GPX/1/1/gpx.xsd">
  <metadata>
    <name/>
    <time>2026-05-07T14:14:01+00:00</time>
    <bound minlat="90.0" minlon="180.0" maxlat="-90.0" maxlon="-180.0"/>
  </metadata>
  <trk>
    <name/>
    <trkseg>
      <trkpt lat="47.16944" lon="13.090585">
        <time>1970-01-01T00:00:00+00:00</time>
        <ele>1018.0</ele>
      </trkpt>
      <trkpt lat="47.169314" lon="13.090585">
        <time>1970-01-01T00:00:00+00:00</time>
        <ele>1017.0</ele>
      </trkpt>
      <trkpt lat="47.169151" lon="13.09066">
        <time>1970-01-01T00:00:00+00:00</time>
        <ele>1013.0</ele>
      </trkpt>
      <trkpt lat="47.169068" lon="13.090648">
        <time>1970-01-01T00:00:00+00:00</time>
        <ele>1012.0</ele>
      </trkpt>
      <trkpt lat="47.169045" lon="13.090554">
        <time>1970-01-01T00:00:00+00:00</time>
        <ele>1013.0</ele>
      </trkpt>
      <trkpt lat="47.169066" lon="13.090464">
        <time>1970-01-01T00:00:00+00:00</time>
        <ele>1015.0</ele>
      </trkpt>
      <trkpt lat="47.169226" lon="13.090241">
        <time>1970-01-01T00:00:00+00:00</time>
        <ele>1021.0</ele>
      </trkpt>
      <trkpt lat="47.169336" lon="13.090021">
        <time>1970-01-01T00:00:00+00:00</time>
        <ele>1024.0</ele>
      </trkpt>
      <trkpt lat="47.169507" lon="13.089774">
        <time>1970-01-01T00:00:00+00:00</time>
        <ele>1024.0</ele>
      </trkpt>
      <trkpt lat="47.169809" lon="13.08904">
        <time>1970-01-01T00:00:00+00:00</time>
        <ele>1031.0</ele>
      </trkpt>
      <trkpt lat="47.170164" lon="13.088745">
        <time>1970-01-01T00:00:00+00:00</time>
        <ele>1036.0</ele>
      </trkpt>
      <trkpt lat="47.170397" lon="13.088505">
        <time>1970-01-01T00:00:00+00:00</time>
        <ele>1043.0</ele>
      </trkpt>
      <trkpt lat="47.170608" lon="13.088227">
        <time>1970-01-01T00:00:00+00:00</time>
        <ele>1050.0</ele>
      </trkpt>
      <trkpt lat="47.169937" lon="13.088138">
        <time>1970-01-01T00:00:00+00:00</time>
        <ele>1060.0</ele>
      </trkpt>
      <trkpt lat="47.169561" lon="13.088148">
        <time>1970-01-01T00:00:00+00:00</time>
        <ele>1064.0</ele>
      </trkpt>
      <trkpt lat="47.169404" lon="13.087956">
        <time>1970-01-01T00:00:00+00:00</time>
        <ele>1077.0</ele>
      </trkpt>
      <trkpt lat="47.169371" lon="13.087863">
        <time>1970-01-01T00:00:00+00:00</time>
        <ele>1082.0</ele>
      </trkpt>
      <trkpt lat="47.169362" lon="13.087581">
        <time>1970-01-01T00:00:00+00:00</time>
        <ele>1097.0</ele>
      </trkpt>
      <trkpt lat="47.169296" lon="13.087429">
        <time>1970-01-01T00:00:00+00:00</time>
        <ele>1104.0</ele>
      </trkpt>
      <trkpt lat="47.169176" lon="13.087224">
        <time>1970-01-01T00:00:00+00:00</time>
        <ele>1110.0</ele>
      </trkpt>
      <trkpt lat="47.169114" lon="13.087265">
        <time>1970-01-01T00:00:00+00:00</time>
        <ele>1109.0</ele>
      </trkpt>
      <trkpt lat="47.1687" lon="13.087099">
        <time>1970-01-01T00:00:00+00:00</time>
        <ele>1118.0</ele>
      </trkpt>
      <trkpt lat="47.168123" lon="13.086914">
        <time>1970-01-01T00:00:00+00:00</time>
        <ele>1130.0</ele>
      </trkpt>
      <trkpt lat="47.167719" lon="13.086928">
        <time>1970-01-01T00:00:00+00:00</time>
        <ele>1127.0</ele>
      </trkpt>
      <trkpt lat="47.167339" lon="13.086753">
        <time>1970-01-01T00:00:00+00:00</time>
        <ele>1124.0</ele>
      </trkpt>
      <trkpt lat="47.167197" lon="13.086574">
        <time>1970-01-01T00:00:00+00:00</time>
        <ele>1132.0</ele>
      </trkpt>
      <trkpt lat="47.167098" lon="13.08643">
        <time>1970-01-01T00:00:00+00:00</time>
        <ele>1138.0</ele>
      </trkpt>
      <trkpt lat="47.167" lon="13.086328">
        <time>1970-01-01T00:00:00+00:00</time>
        <ele>1140.0</ele>
      </trkpt>
      <trkpt lat="47.166791" lon="13.086056">
        <time>1970-01-01T00:00:00+00:00</time>
        <ele>1152.0</ele>
      </trkpt>
      <trkpt lat="47.166665" lon="13.086032">
        <time>1970-01-01T00:00:00+00:00</time>
        <ele>1154.0</ele>
      </trkpt>
      <trkpt lat="47.166507" lon="13.085933">
        <time>1970-01-01T00:00:00+00:00</time>
        <ele>1160.0</ele>
      </trkpt>
      <trkpt lat="47.166148" lon="13.086094">
        <time>1970-01-01T00:00:00+00:00</time>
        <ele>1164.0</ele>
      </trkpt>
      <trkpt lat="47.166033" lon="13.086059">
        <time>1970-01-01T00:00:00+00:00</time>
        <ele>1166.0</ele>
      </trkpt>
      <trkpt lat="47.165802" lon="13.085938">
        <time>1970-01-01T00:00:00+00:00</time>
        <ele>1170.0</ele>
      </trkpt>
      <trkpt lat="47.165746" lon="13.085937">
        <time>1970-01-01T00:00:00+00:00</time>
        <ele>1171.0</ele>
      </trkpt>
      <trkpt lat="47.165566" lon="13.086081">
        <time>1970-01-01T00:00:00+00:00</time>
        <ele>1169.0</ele>
      </trkpt>
      <trkpt lat="47.165247" lon="13.086067">
        <time>1970-01-01T00:00:00+00:00</time>
        <ele>1174.0</ele>
      </trkpt>
      <trkpt lat="47.165003" lon="13.085968">
        <time>1970-01-01T00:00:00+00:00</time>
        <ele>1183.0</ele>
      </trkpt>
      <trkpt lat="47.164743" lon="13.085893">
        <time>1970-01-01T00:00:00+00:00</time>
        <ele>1192.0</ele>
      </trkpt>
      <trkpt lat="47.164628" lon="13.085839">
        <time>1970-01-01T00:00:00+00:00</time>
        <ele>1197.0</ele>
      </trkpt>
      <trkpt lat="47.164551" lon="13.08576">
        <time>1970-01-01T00:00:00+00:00</time>
        <ele>1202.0</ele>
      </trkpt>
      <trkpt lat="47.164575" lon="13.085643">
        <time>1970-01-01T00:00:00+00:00</time>
        <ele>1205.0</ele>
      </trkpt>
      <trkpt lat="47.164932" lon="13.085161">
        <time>1970-01-01T00:00:00+00:00</time>
        <ele>1212.0</ele>
      </trkpt>
      <trkpt lat="47.165041" lon="13.084858">
        <time>1970-01-01T00:00:00+00:00</time>
        <ele>1221.0</ele>
      </trkpt>
      <trkpt lat="47.165424" lon="13.084458">
        <time>1970-01-01T00:00:00+00:00</time>
        <ele>1221.0</ele>
      </trkpt>
      <trkpt lat="47.165967" lon="13.083717">
        <time>1970-01-01T00:00:00+00:00</time>
        <ele>1229.0</ele>
      </trkpt>
      <trkpt lat="47.16594" lon="13.083609">
        <time>1970-01-01T00:00:00+00:00</time>
        <ele>1233.0</ele>
      </trkpt>
      <trkpt lat="47.165445" lon="13.083564">
        <time>1970-01-01T00:00:00+00:00</time>
        <ele>1242.0</ele>
      </trkpt>
      <trkpt lat="47.165344" lon="13.083571">
        <time>1970-01-01T00:00:00+00:00</time>
        <ele>1245.0</ele>
      </trkpt>
      <trkpt lat="47.165259" lon="13.08352">
        <time>1970-01-01T00:00:00+00:00</time>
        <ele>1251.0</ele>
      </trkpt>
      <trkpt lat="47.165262" lon="13.083418">
        <time>1970-01-01T00:00:00+00:00</time>
        <ele>1254.0</ele>
      </trkpt>
      <trkpt lat="47.165418" lon="13.083199">
        <time>1970-01-01T00:00:00+00:00</time>
        <ele>1254.0</ele>
      </trkpt>
      <trkpt lat="47.165702" lon="13.08272">
        <time>1970-01-01T00:00:00+00:00</time>
        <ele>1263.0</ele>
      </trkpt>
      <trkpt lat="47.165724" lon="13.082649">
        <time>1970-01-01T00:00:00+00:00</time>
        <ele>1265.0</ele>
      </trkpt>
      <trkpt lat="47.165677" lon="13.082644">
        <time>1970-01-01T00:00:00+00:00</time>
        <ele>1266.0</ele>
      </trkpt>
      <trkpt lat="47.165453" lon="13.082717">
        <time>1970-01-01T00:00:00+00:00</time>
        <ele>1267.0</ele>
      </trkpt>
      <trkpt lat="47.165486" lon="13.082617">
        <time>1970-01-01T00:00:00+00:00</time>
        <ele>1270.0</ele>
      </trkpt>
      <trkpt lat="47.165374" lon="13.082651">
        <time>1970-01-01T00:00:00+00:00</time>
        <ele>1271.0</ele>
      </trkpt>
      <trkpt lat="47.16536" lon="13.082597">
        <time>1970-01-01T00:00:00+00:00</time>
        <ele>1274.0</ele>
      </trkpt>
      <trkpt lat="47.165387" lon="13.082508">
        <time>1970-01-01T00:00:00+00:00</time>
        <ele>1276.0</ele>
      </trkpt>
      <trkpt lat="47.165487" lon="13.082374">
        <time>1970-01-01T00:00:00+00:00</time>
        <ele>1279.0</ele>
      </trkpt>
      <trkpt lat="47.165329" lon="13.082018">
        <time>1970-01-01T00:00:00+00:00</time>
        <ele>1293.0</ele>
      </trkpt>
      <trkpt lat="47.165213" lon="13.081968">
        <time>1970-01-01T00:00:00+00:00</time>
        <ele>1296.0</ele>
      </trkpt>
      <trkpt lat="47.165087" lon="13.082056">
        <time>1970-01-01T00:00:00+00:00</time>
        <ele>1296.0</ele>
      </trkpt>
      <trkpt lat="47.164936" lon="13.081926">
        <time>1970-01-01T00:00:00+00:00</time>
        <ele>1299.0</ele>
      </trkpt>
      <trkpt lat="47.16476" lon="13.08208">
        <time>1970-01-01T00:00:00+00:00</time>
        <ele>1298.0</ele>
      </trkpt>
      <trkpt lat="47.164634" lon="13.082312">
        <time>1970-01-01T00:00:00+00:00</time>
        <ele>1298.0</ele>
      </trkpt>
      <trkpt lat="47.164574" lon="13.082403">
        <time>1970-01-01T00:00:00+00:00</time>
        <ele>1299.0</ele>
      </trkpt>
      <trkpt lat="47.164308" lon="13.082842">
        <time>1970-01-01T00:00:00+00:00</time>
        <ele>1301.0</ele>
      </trkpt>
      <trkpt lat="47.164221" lon="13.082891">
        <time>1970-01-01T00:00:00+00:00</time>
        <ele>1302.0</ele>
      </trkpt>
      <trkpt lat="47.163896" lon="13.083273">
        <time>1970-01-01T00:00:00+00:00</time>
        <ele>1298.0</ele>
      </trkpt>
      <trkpt lat="47.163517" lon="13.083854">
        <time>1970-01-01T00:00:00+00:00</time>
        <ele>1282.0</ele>
      </trkpt>
      <trkpt lat="47.163376" lon="13.08396">
        <time>1970-01-01T00:00:00+00:00</time>
        <ele>1280.0</ele>
      </trkpt>
      <trkpt lat="47.162543" lon="13.084316">
        <time>1970-01-01T00:00:00+00:00</time>
        <ele>1295.0</ele>
      </trkpt>
      <trkpt lat="47.162289" lon="13.084722">
        <time>1970-01-01T00:00:00+00:00</time>
        <ele>1290.0</ele>
      </trkpt>
      <trkpt lat="47.161722" lon="13.085264">
        <time>1970-01-01T00:00:00+00:00</time>
        <ele>1282.0</ele>
      </trkpt>
      <trkpt lat="47.161722" lon="13.085264">
        <time>1970-01-01T00:00:00+00:00</time>
        <ele>1282.0</ele>
      </trkpt>
      <trkpt lat="47.161691" lon="13.085294">
        <time>1970-01-01T00:00:00+00:00</time>
        <ele>1281.0</ele>
      </trkpt>
      <trkpt lat="47.161508" lon="13.085421">
        <time>1970-01-01T00:00:00+00:00</time>
        <ele>1280.0</ele>
      </trkpt>
      <trkpt lat="47.161291" lon="13.085609">
        <time>1970-01-01T00:00:00+00:00</time>
        <ele>1279.0</ele>
      </trkpt>
      <trkpt lat="47.160357" lon="13.086499">
        <time>1970-01-01T00:00:00+00:00</time>
        <ele>1256.0</ele>
      </trkpt>
      <trkpt lat="47.160098" lon="13.086778">
        <time>1970-01-01T00:00:00+00:00</time>
        <ele>1245.0</ele>
      </trkpt>
      <trkpt lat="47.159913" lon="13.086886">
        <time>1970-01-01T00:00:00+00:00</time>
        <ele>1242.0</ele>
      </trkpt>
      <trkpt lat="47.15938" lon="13.086907">
        <time>1970-01-01T00:00:00+00:00</time>
        <ele>1241.0</ele>
      </trkpt>
      <trkpt lat="47.159158" lon="13.086967">
        <time>1970-01-01T00:00:00+00:00</time>
        <ele>1244.0</ele>
      </trkpt>
      <trkpt lat="47.159061" lon="13.087039">
        <time>1970-01-01T00:00:00+00:00</time>
        <ele>1247.0</ele>
      </trkpt>
      <trkpt lat="47.159018" lon="13.087132">
        <time>1970-01-01T00:00:00+00:00</time>
        <ele>1248.0</ele>
      </trkpt>
      <trkpt lat="47.15907" lon="13.087202">
        <time>1970-01-01T00:00:00+00:00</time>
        <ele>1246.0</ele>
      </trkpt>
      <trkpt lat="47.159263" lon="13.087173">
        <time>1970-01-01T00:00:00+00:00</time>
        <ele>1239.0</ele>
      </trkpt>
      <trkpt lat="47.159516" lon="13.087382">
        <time>1970-01-01T00:00:00+00:00</time>
        <ele>1234.0</ele>
      </trkpt>
      <trkpt lat="47.159698" lon="13.087434">
        <time>1970-01-01T00:00:00+00:00</time>
        <ele>1231.0</ele>
      </trkpt>
      <trkpt lat="47.160239" lon="13.087457">
        <time>1970-01-01T00:00:00+00:00</time>
        <ele>1224.0</ele>
      </trkpt>
      <trkpt lat="47.160796" lon="13.087429">
        <time>1970-01-01T00:00:00+00:00</time>
        <ele>1216.0</ele>
      </trkpt>
      <trkpt lat="47.161037" lon="13.087357">
        <time>1970-01-01T00:00:00+00:00</time>
        <ele>1218.0</ele>
      </trkpt>
      <trkpt lat="47.161378" lon="13.087309">
        <time>1970-01-01T00:00:00+00:00</time>
        <ele>1222.0</ele>
      </trkpt>
      <trkpt lat="47.162232" lon="13.087022">
        <time>1970-01-01T00:00:00+00:00</time>
        <ele>1212.0</ele>
      </trkpt>
      <trkpt lat="47.162739" lon="13.086821">
        <time>1970-01-01T00:00:00+00:00</time>
        <ele>1208.0</ele>
      </trkpt>
      <trkpt lat="47.163181" lon="13.086496">
        <time>1970-01-01T00:00:00+00:00</time>
        <ele>1206.0</ele>
      </trkpt>
      <trkpt lat="47.163233" lon="13.086512">
        <time>1970-01-01T00:00:00+00:00</time>
        <ele>1204.0</ele>
      </trkpt>
      <trkpt lat="47.163549" lon="13.086282">
        <time>1970-01-01T00:00:00+00:00</time>
        <ele>1202.0</ele>
      </trkpt>
      <trkpt lat="47.16374" lon="13.086272">
        <time>1970-01-01T00:00:00+00:00</time>
        <ele>1201.0</ele>
      </trkpt>
      <trkpt lat="47.163869" lon="13.08626">
        <time>1970-01-01T00:00:00+00:00</time>
        <ele>1201.0</ele>
      </trkpt>
      <trkpt lat="47.164097" lon="13.086152">
        <time>1970-01-01T00:00:00+00:00</time>
        <ele>1203.0</ele>
      </trkpt>
      <trkpt lat="47.164446" lon="13.086061">
        <time>1970-01-01T00:00:00+00:00</time>
        <ele>1197.0</ele>
      </trkpt>
      <trkpt lat="47.16525" lon="13.086242">
        <time>1970-01-01T00:00:00+00:00</time>
        <ele>1168.0</ele>
      </trkpt>
      <trkpt lat="47.165566" lon="13.086081">
        <time>1970-01-01T00:00:00+00:00</time>
        <ele>1169.0</ele>
      </trkpt>
      <trkpt lat="47.165746" lon="13.085937">
        <time>1970-01-01T00:00:00+00:00</time>
        <ele>1171.0</ele>
      </trkpt>
      <trkpt lat="47.165802" lon="13.085938">
        <time>1970-01-01T00:00:00+00:00</time>
        <ele>1170.0</ele>
      </trkpt>
      <trkpt lat="47.166033" lon="13.086059">
        <time>1970-01-01T00:00:00+00:00</time>
        <ele>1166.0</ele>
      </trkpt>
      <trkpt lat="47.166148" lon="13.086094">
        <time>1970-01-01T00:00:00+00:00</time>
        <ele>1164.0</ele>
      </trkpt>
      <trkpt lat="47.166507" lon="13.085933">
        <time>1970-01-01T00:00:00+00:00</time>
        <ele>1160.0</ele>
      </trkpt>
      <trkpt lat="47.166665" lon="13.086032">
        <time>1970-01-01T00:00:00+00:00</time>
        <ele>1154.0</ele>
      </trkpt>
      <trkpt lat="47.166791" lon="13.086056">
        <time>1970-01-01T00:00:00+00:00</time>
        <ele>1152.0</ele>
      </trkpt>
      <trkpt lat="47.167" lon="13.086328">
        <time>1970-01-01T00:00:00+00:00</time>
        <ele>1140.0</ele>
      </trkpt>
      <trkpt lat="47.167098" lon="13.08643">
        <time>1970-01-01T00:00:00+00:00</time>
        <ele>1138.0</ele>
      </trkpt>
      <trkpt lat="47.167197" lon="13.086574">
        <time>1970-01-01T00:00:00+00:00</time>
        <ele>1132.0</ele>
      </trkpt>
      <trkpt lat="47.167339" lon="13.086753">
        <time>1970-01-01T00:00:00+00:00</time>
        <ele>1124.0</ele>
      </trkpt>
      <trkpt lat="47.167719" lon="13.086928">
        <time>1970-01-01T00:00:00+00:00</time>
        <ele>1127.0</ele>
      </trkpt>
      <trkpt lat="47.168123" lon="13.086914">
        <time>1970-01-01T00:00:00+00:00</time>
        <ele>1130.0</ele>
      </trkpt>
      <trkpt lat="47.1687" lon="13.087099">
        <time>1970-01-01T00:00:00+00:00</time>
        <ele>1118.0</ele>
      </trkpt>
      <trkpt lat="47.169114" lon="13.087265">
        <time>1970-01-01T00:00:00+00:00</time>
        <ele>1109.0</ele>
      </trkpt>
      <trkpt lat="47.169176" lon="13.087224">
        <time>1970-01-01T00:00:00+00:00</time>
        <ele>1110.0</ele>
      </trkpt>
      <trkpt lat="47.169296" lon="13.087429">
        <time>1970-01-01T00:00:00+00:00</time>
        <ele>1104.0</ele>
      </trkpt>
      <trkpt lat="47.169362" lon="13.087581">
        <time>1970-01-01T00:00:00+00:00</time>
        <ele>1097.0</ele>
      </trkpt>
      <trkpt lat="47.169371" lon="13.087863">
        <time>1970-01-01T00:00:00+00:00</time>
        <ele>1082.0</ele>
      </trkpt>
      <trkpt lat="47.169404" lon="13.087956">
        <time>1970-01-01T00:00:00+00:00</time>
        <ele>1077.0</ele>
      </trkpt>
      <trkpt lat="47.169561" lon="13.088148">
        <time>1970-01-01T00:00:00+00:00</time>
        <ele>1064.0</ele>
      </trkpt>
      <trkpt lat="47.169937" lon="13.088138">
        <time>1970-01-01T00:00:00+00:00</time>
        <ele>1060.0</ele>
      </trkpt>
      <trkpt lat="47.170608" lon="13.088227">
        <time>1970-01-01T00:00:00+00:00</time>
        <ele>1050.0</ele>
      </trkpt>
      <trkpt lat="47.170397" lon="13.088505">
        <time>1970-01-01T00:00:00+00:00</time>
        <ele>1043.0</ele>
      </trkpt>
      <trkpt lat="47.170164" lon="13.088745">
        <time>1970-01-01T00:00:00+00:00</time>
        <ele>1036.0</ele>
      </trkpt>
      <trkpt lat="47.169809" lon="13.08904">
        <time>1970-01-01T00:00:00+00:00</time>
        <ele>1031.0</ele>
      </trkpt>
      <trkpt lat="47.169507" lon="13.089774">
        <time>1970-01-01T00:00:00+00:00</time>
        <ele>1024.0</ele>
      </trkpt>
      <trkpt lat="47.169336" lon="13.090021">
        <time>1970-01-01T00:00:00+00:00</time>
        <ele>1024.0</ele>
      </trkpt>
      <trkpt lat="47.169226" lon="13.090241">
        <time>1970-01-01T00:00:00+00:00</time>
        <ele>1021.0</ele>
      </trkpt>
      <trkpt lat="47.169066" lon="13.090464">
        <time>1970-01-01T00:00:00+00:00</time>
        <ele>1015.0</ele>
      </trkpt>
      <trkpt lat="47.169045" lon="13.090554">
        <time>1970-01-01T00:00:00+00:00</time>
        <ele>1013.0</ele>
      </trkpt>
      <trkpt lat="47.169068" lon="13.090648">
        <time>1970-01-01T00:00:00+00:00</time>
        <ele>1012.0</ele>
      </trkpt>
      <trkpt lat="47.169151" lon="13.09066">
        <time>1970-01-01T00:00:00+00:00</time>
        <ele>1013.0</ele>
      </trkpt>
      <trkpt lat="47.169314" lon="13.090585">
        <time>1970-01-01T00:00:00+00:00</time>
        <ele>1017.0</ele>
      </trkpt>
      <trkpt lat="47.16944" lon="13.090585">
        <time>1970-01-01T00:00:00+00:00</time>
        <ele>1018.0</ele>
      </trkpt>
    </trkseg>
  </trk>
</gpx>
